Date,TemperatureHighF,TemperatureAvgF,TemperatureLowF,DewpointHighF,DewpointAvgF,DewpointLowF,HumidityHigh,HumidityAvg,HumidityLow,PressureMaxIn,PressureMinIn,WindSpeedMaxMPH,WindSpeedAvgMPH,GustSpeedMaxMPH,PrecipitationSumIn
2013-1-1,32.2,28.4,24.4,27.2,24.7,18.1,94,86,75,29.78,29.68,22,9,22,0.00
2013-1-2,26.4,20.4,16.5,18.1,10.3,4.7,80,65,48,29.93,29.75,16,5,16,0.00
2013-1-3,30.9,21.5,15.4,16.7,11.5,7.2,74,65,50,29.94,29.85,24,6,24,0.00
2013-1-4,28.4,24.9,22.6,17.4,16.3,13.9,76,70,60,29.95,29.87,24,10,24,0.00
2013-1-5,42.3,28.8,23.2,23.7,17.5,15.1,76,64,44,30.10,29.91,20,5,20,0.00
2013-1-6,36.9,32.7,30.2,29.3,24.0,19.8,89,71,61,29.93,29.78,16,6,16,0.00
2013-1-7,31.5,26.1,15.8,27.8,20.0,11.4,87,78,63,30.18,29.93,19,5,19,0.00
2013-1-8,45.5,29.5,10.8,25.7,18.1,5.9,84,65,42,30.13,30.03,17,3,17,0.00
2013-1-9,47.7,35.5,20.3,41.7,30.0,16.8,97,81,65,30.19,29.98,28,9,28,0.01
2013-1-10,51.4,39.3,29.3,30.7,25.5,22.7,80,59,43,30.34,30.16,13,3,13,0.00
2013-1-11,49.8,40.2,34.5,49.6,34.0,23.8,99,80,58,30.17,29.84,11,3,11,0.22
2013-1-12,62.2,55.4,48.2,54.3,51.7,47.6,99,88,72,29.94,29.86,13,3,13,0.01
2013-1-13,64.6,57.7,46.8,55.1,50.8,46.3,99,80,60,29.87,29.74,23,5,23,0.01
2013-1-14,57.2,40.2,31.1,55.4,36.3,26.7,98,86,69,30.09,29.76,26,5,26,0.08
2013-1-15,33.3,31.2,29.5,30.8,28.5,25.0,96,90,75,30.09,29.85,0,0,0,0.01
2013-1-16,36.1,32.7,30.0,34.7,30.4,25.0,97,91,73,29.87,29.64,18,4,18,0.13
2013-1-17,32.2,29.9,28.0,26.6,24.8,21.8,88,81,71,29.93,29.76,16,6,16,0.00
2013-1-18,29.7,24.6,16.5,23.3,8.6,-3.5,81,53,27,30.17,29.86,33,8,33,0.00
2013-1-19,50.9,41.5,28.4,13.6,8.5,0.3,34,28,24,30.05,29.66,27,9,27,0.07
2013-1-20,72.3,45.4,41.5,46.7,19.6,10.0,49,38,24,30.29,29.63,38,20,38,0.00
2013-1-21,71.6,62.5,55.6,59.6,56.5,46.0,96,82,60,29.56,29.46,11,4,11,0.00
2013-1-22,60.3,49.9,43.5,46.7,42.5,39.0,97,77,49,29.76,29.60,12,4,12,0.00
2013-1-23,62.2,48.3,38.1,44.2,38.8,32.2,99,74,35,29.82,29.71,8,2,8,0.01
2013-1-24,72.3,22.9,3.2,47.1,7.7,-18.3,99,55,24,29.95,29.69,8,2,8,0.00
2013-1-25,18.9,11.0,1.9,16.7,4.0,-10.0,91,74,52,29.93,29.49,16,3,16,0.00
2013-1-26,25.2,20.5,16.7,19.0,15.6,12.8,89,81,72,29.82,29.53,17,7,17,0.00
2013-1-27,19.9,19.9,19.9,13.7,13.7,13.7,76,76,76,29.82,29.82,6,6,8,0.00
2013-1-28,67.8,30.4,19.9,49.6,26.3,13.7,99,84,38,30.01,29.82,27,8,27,0.08
2013-1-29,66.0,53.6,49.5,54.0,50.6,49.2,99,90,63,29.99,29.82,14,5,14,0.04
2013-1-30,62.6,53.8,47.7,55.4,50.0,46.0,99,88,76,29.82,29.21,23,5,23,0.66
2013-1-31,47.5,26.0,19.0,46.1,17.7,3.3,97,72,49,29.68,29.17,34,16,34,0.11
2013-2-1,20.5,12.1,7.2,15.8,3.3,-5.0,84,67,53,30.10,29.63,23,9,23,0.00
2013-2-2,24.4,13.4,3.2,18.4,2.3,-5.7,85,62,35,30.10,29.80,15,5,15,0.00
2013-2-3,26.6,19.1,14.2,18.5,13.0,6.6,84,76,64,29.80,29.63,21,8,21,0.00
2013-2-4,29.7,19.7,13.6,28.7,10.9,5.5,97,69,43,29.86,29.70,24,7,24,0.00
2013-2-5,35.1,29.7,28.0,31.9,27.5,24.9,97,91,78,29.78,29.67,18,6,18,0.06
2013-2-6,28.4,25.3,15.3,27.2,20.1,11.6,95,81,69,30.14,29.77,17,5,17,0.00
2013-2-7,34.7,25.1,10.4,24.6,19.0,6.4,89,78,66,30.17,29.94,15,4,15,0.01
2013-2-8,38.5,29.2,21.0,36.6,26.0,18.0,95,88,78,29.95,29.67,32,7,34,0.28
2013-2-9,29.3,21.5,12.9,18.2,13.1,6.5,89,71,48,30.20,29.88,27,6,27,0.00
2013-2-10,47.1,26.6,3.7,24.7,10.7,-2.2,83,56,24,30.19,29.94,14,3,14,0.00
2013-2-11,57.9,43.9,32.7,48.1,31.4,14.7,99,69,24,29.95,29.62,29,9,29,0.05
2013-2-12,46.6,36.6,30.9,26.5,21.9,17.7,65,56,41,29.87,29.73,35,11,35,0.02
2013-2-13,41.2,32.6,24.6,30.6,24.2,15.5,98,73,47,29.81,29.54,10,2,10,0.00
2013-2-14,40.5,33.1,25.3,31.0,24.7,19.1,95,72,57,29.83,29.68,15,6,15,0.07
2013-2-15,42.1,34.2,29.1,31.1,27.2,22.2,88,76,54,29.89,29.79,18,6,18,0.00
2013-2-16,28.9,23.0,16.7,25.0,13.9,7.5,85,68,50,29.86,29.71,17,6,17,0.00
2013-2-17,18.3,14.7,12.0,11.5,6.7,-0.6,79,70,49,30.03,29.70,26,9,26,0.00
2013-2-18,72.3,26.0,6.6,46.7,4.8,-6.1,99,43,24,30.11,29.86,16,4,16,0.00
2013-2-19,41.9,32.9,20.3,37.1,24.5,14.0,93,73,51,29.86,29.55,25,8,25,0.11
2013-2-20,21.2,16.9,14.5,16.8,8.1,2.8,86,68,52,29.97,29.69,31,12,31,0.00
2013-2-21,23.7,17.1,13.6,12.0,7.6,3.7,77,66,57,30.14,29.93,23,6,23,0.00
2013-2-22,26.4,23.6,15.8,23.1,17.0,9.0,87,76,60,30.10,29.92,17,5,17,0.00
2013-2-23,52.2,36.2,26.4,41.4,31.7,23.0,94,84,62,29.92,29.70,11,3,11,0.00
2013-2-24,34.9,27.9,23.2,33.3,22.1,15.4,94,79,70,29.95,29.70,21,6,21,0.00
2013-2-25,43.7,30.4,20.7,21.9,17.0,13.4,81,60,35,30.03,29.94,13,4,13,0.00
2013-2-26,33.4,31.0,29.1,32.4,23.6,15.7,96,76,55,29.97,29.52,21,4,21,0.00
2013-2-27,38.7,34.5,31.3,35.1,31.6,28.8,97,89,72,29.57,29.47,20,4,20,0.13
2013-2-28,31.8,29.7,28.2,30.0,26.1,23.5,96,86,77,29.62,29.50,19,8,19,0.00
2013-3-1,30.4,27.1,22.8,26.7,22.1,17.3,91,81,70,29.78,29.62,17,8,17,0.00
2013-3-2,26.6,22.4,19.8,17.4,15.2,13.7,81,74,61,29.75,29.69,20,7,20,0.00
2013-3-3,26.4,21.6,18.7,17.4,14.0,10.3,84,73,54,29.78,29.69,20,8,20,0.00
2013-3-4,18.7,17.8,17.8,12.1,10.1,10.0,75,71,71,29.79,29.78,14,7,14,0.00
2013-3-5,48.6,24.6,16.5,25.5,10.5,4.7,88,60,23,29.95,29.61,17,6,17,0.24
2013-3-6,67.8,26.5,17.8,41.3,19.8,10.0,96,76,38,30.05,29.59,21,8,21,0.02
2013-3-7,37.6,31.9,29.1,27.7,24.4,20.6,89,74,54,30.12,29.96,21,8,21,0.00
2013-3-8,33.4,28.1,21.9,24.6,21.8,18.0,86,77,69,30.26,30.09,27,9,27,0.00
2013-3-9,56.5,34.5,13.6,25.5,16.2,9.3,88,55,22,30.27,30.15,6,2,6,0.00
2013-3-10,60.4,47.8,32.5,29.6,21.8,9.7,51,38,25,30.17,30.03,14,4,14,0.00
2013-3-11,52.7,48.9,45.1,48.4,33.2,26.1,99,58,40,30.04,29.75,16,6,16,0.06
2013-3-12,49.6,37.5,32.2,48.3,34.7,22.2,99,90,66,29.91,29.72,17,5,17,0.40
2013-3-13,35.4,28.4,22.8,27.7,21.5,12.2,91,76,53,29.96,29.82,22,8,22,0.01
2013-3-14,33.8,25.9,20.1,17.2,13.5,9.9,76,60,45,30.02,29.95,30,10,30,0.00
2013-3-15,46.8,35.8,25.0,32.2,22.5,12.8,69,59,46,30.00,29.74,24,7,24,0.00
2013-3-16,45.1,40.2,33.8,44.2,38.3,32.2,99,93,70,29.83,29.57,16,4,16,0.02
2013-3-17,36.0,30.9,25.5,33.4,24.1,18.1,99,77,58,30.09,29.83,17,6,17,0.00
2013-3-18,29.1,27.6,25.3,28.9,24.6,19.3,99,89,69,30.08,29.72,13,6,13,0.00
2013-3-19,42.4,35.2,28.9,37.1,22.0,5.9,99,65,26,29.85,29.65,36,12,36,0.14
2013-3-20,38.1,29.4,22.8,25.3,12.1,6.5,86,51,31,29.86,29.69,27,10,27,0.00
2013-3-21,23.5,19.5,14.9,17.6,7.5,-0.8,85,61,42,29.77,29.68,23,9,23,0.00
2013-3-22,33.4,24.7,19.8,15.9,12.8,10.0,75,61,47,29.90,29.74,17,8,17,0.00
2013-3-23,43.2,31.4,21.6,22.4,17.2,12.8,72,57,38,29.91,29.85,17,6,17,0.00
2013-3-24,34.0,28.1,21.9,25.1,19.4,15.7,87,71,52,29.89,29.49,11,3,11,0.00
2013-3-25,36.5,30.2,26.6,31.2,26.8,23.4,97,87,72,29.62,29.41,14,4,14,0.21
2013-3-26,40.1,32.0,28.0,30.2,26.4,21.1,95,81,56,29.95,29.62,24,8,24,0.02
2013-3-27,38.7,31.7,27.5,29.1,24.2,18.7,95,75,50,30.03,29.92,17,8,17,0.05
2013-3-28,38.7,32.7,29.1,28.5,26.1,22.6,89,77,63,30.14,29.99,18,8,18,0.00
2013-3-29,49.1,38.9,32.2,28.7,23.5,16.6,76,57,34,30.14,30.06,16,5,16,0.00
2013-3-30,54.0,39.1,24.6,26.2,17.9,9.9,83,48,24,30.14,29.99,10,2,10,0.00
2013-3-31,45.0,40.8,33.1,44.2,33.2,18.1,99,77,45,29.99,26.69,21,4,21,0.31
2013-4-1,44.1,38.0,30.4,41.2,28.8,10.6,94,72,38,29.89,29.67,23,10,23,0.02
2013-4-2,36.9,29.3,23.4,12.4,9.8,2.3,60,46,29,30.06,29.88,22,8,22,0.00
2013-4-3,38.3,29.6,21.9,14.9,8.7,1.9,57,43,26,30.25,30.04,29,8,29,0.00
2013-4-4,46.6,31.8,14.5,15.1,7.8,0.3,69,41,23,30.25,29.91,16,4,16,0.00
2013-4-5,53.1,42.5,31.8,28.1,21.5,14.5,67,46,31,30.04,29.85,28,8,28,0.00
2013-4-6,54.5,39.1,22.8,22.4,14.5,7.3,76,44,21,30.17,30.03,13,5,13,0.00
2013-4-7,70.5,54.5,42.1,51.3,32.8,14.6,99,48,32,30.06,29.88,27,7,27,0.07
2013-4-8,72.1,59.8,44.2,51.0,45.3,40.1,99,65,35,30.03,29.91,20,4,20,0.00
2013-4-9,78.6,65.9,55.4,56.0,51.6,45.9,86,63,41,30.09,29.92,15,5,15,0.00
2013-4-10,80.8,72.6,57.6,58.2,54.2,50.2,97,55,40,29.97,29.83,30,11,30,0.02
2013-4-11,78.8,64.9,49.5,59.9,54.1,45.6,99,73,35,29.92,29.67,18,4,18,0.00
2013-4-12,67.5,56.4,43.2,60.9,49.3,35.5,99,80,40,29.79,29.57,24,8,24,0.58
2013-4-13,56.3,44.8,36.7,37.1,32.0,25.3,84,64,35,29.92,29.77,22,8,22,0.00
2013-4-14,64.8,48.6,31.6,38.7,31.7,25.8,89,57,30,30.07,29.92,14,4,14,0.00
2013-4-15,59.0,54.2,50.5,50.5,45.5,37.8,88,73,56,30.14,30.02,22,8,22,0.00
2013-4-16,78.8,64.4,53.6,58.6,54.0,50.4,99,73,44,30.17,30.03,30,8,30,0.33
2013-4-17,70.3,60.0,51.8,60.5,56.8,51.3,99,90,67,30.18,30.09,13,3,13,0.00
2013-4-18,78.3,64.8,56.5,63.4,58.3,55.3,99,81,55,30.15,29.87,24,9,24,0.00
2013-4-19,73.0,57.7,41.5,60.8,52.4,35.3,99,83,60,29.88,29.54,24,10,24,0.28
2013-4-20,48.0,38.6,30.2,35.7,26.5,19.6,89,64,39,30.27,29.78,24,10,24,0.02
2013-4-21,54.0,37.9,23.5,27.5,19.4,10.2,88,53,24,30.44,30.26,14,4,14,0.00
2013-4-22,55.2,43.6,33.1,32.7,23.2,13.6,77,49,23,30.40,30.24,19,5,19,0.00
2013-4-23,67.5,48.7,31.6,42.2,35.5,30.0,98,66,31,30.26,30.00,12,3,12,0.00
2013-4-24,74.7,53.9,38.3,59.4,46.8,35.4,99,80,47,30.04,29.71,32,7,32,0.11
2013-4-25,56.7,44.0,33.8,35.7,28.4,17.7,95,61,26,30.24,30.04,17,6,17,0.02
2013-4-26,61.7,46.8,32.4,39.2,30.4,18.1,94,60,22,30.37,30.24,14,4,14,0.00
2013-4-27,69.3,51.7,30.4,43.1,33.3,26.8,95,57,24,30.33,30.17,12,3,12,0.00
2013-4-28,52.0,50.3,44.6,43.9,42.7,39.6,86,76,66,30.17,30.10,11,5,11,0.00
2013-4-29,51.3,51.3,51.3,43.5,43.5,43.5,75,75,75,30.11,30.11,6,6,11,0.00
2013-4-30,67.8,52.0,51.1,53.5,45.9,41.3,99,80,38,30.11,29.83,13,6,13,0.19
2013-5-1,70.0,57.3,48.7,51.2,39.5,25.1,99,59,23,30.09,29.96,13,5,13,0.00
2013-5-2,69.6,57.1,44.1,43.8,36.3,24.4,86,52,22,30.10,30.00,19,5,19,0.00
2013-5-3,66.0,55.5,46.2,45.7,41.5,31.2,86,62,39,30.04,29.96,17,6,17,0.00
2013-5-4,65.5,51.9,39.9,44.3,40.4,37.2,96,68,41,29.98,29.85,23,6,23,0.00
2013-5-5,66.6,53.0,42.1,42.3,34.6,19.5,85,57,21,29.91,29.80,17,5,17,0.00
2013-5-6,58.1,50.0,42.6,54.3,48.1,39.7,99,93,77,29.86,29.76,17,5,17,0.05
2013-5-7,57.7,55.1,53.8,56.3,54.5,52.9,99,98,92,29.77,29.67,24,8,24,0.90
2013-5-8,70.7,55.9,45.9,54.4,49.7,42.9,99,84,39,29.75,29.64,14,4,24,0.53
2013-5-9,72.0,59.0,50.2,58.7,53.7,49.9,99,84,54,29.78,29.65,15,4,15,0.05
2013-5-10,78.3,62.4,50.0,60.9,55.1,49.7,99,81,45,29.79,29.60,30,4,30,0.20
2013-5-11,62.1,57.8,51.1,60.7,55.9,49.1,99,94,79,29.61,29.53,16,6,16,0.53
2013-5-12,51.1,45.3,39.4,49.1,33.3,23.8,99,66,44,29.74,29.54,24,8,24,0.06
2013-5-13,50.4,41.3,34.2,30.7,25.5,20.1,76,56,34,29.87,29.72,23,7,23,0.00
2013-5-14,60.8,44.8,26.2,39.1,30.0,23.0,96,61,32,29.88,29.72,13,3,13,0.00
2013-5-15,83.5,70.0,45.7,59.8,54.0,38.1,94,60,42,29.72,29.52,22,8,22,0.00
2013-5-16,74.1,65.6,58.8,62.3,58.6,52.7,99,80,52,29.75,29.57,19,8,19,0.30
2013-5-17,82.4,67.3,54.0,60.6,53.1,35.3,99,68,24,29.87,29.74,13,3,13,0.00
2013-5-18,75.6,62.8,54.0,62.7,56.7,48.5,99,82,60,29.91,29.85,14,3,14,0.00
2013-5-19,57.9,57.9,57.9,57.6,57.6,57.6,99,99,99,29.90,29.90,3,3,7,0.00
2013-5-20,57.9,57.9,57.9,57.6,57.6,57.6,99,99,99,29.90,29.90,3,3,7,0.00
2013-5-21,57.9,57.9,57.9,57.6,57.6,57.6,99,99,99,29.90,29.90,3,3,7,0.00
2013-5-22,74.3,59.6,57.9,65.7,58.5,39.6,99,97,36,30.18,29.90,8,3,8,0.61
2013-5-23,79.2,64.7,56.8,64.9,59.3,53.1,99,85,45,29.92,29.81,21,4,21,0.11
2013-5-24,56.8,43.5,37.4,56.6,40.4,30.7,99,89,69,30.20,29.85,23,7,23,0.12
2013-5-25,59.0,44.7,32.9,39.1,33.6,29.9,95,69,40,30.22,30.15,25,5,25,0.00
2013-5-26,64.2,51.1,39.0,40.4,34.1,28.1,93,57,31,30.25,30.18,21,5,21,0.00
2013-5-27,62.4,50.7,33.4,53.2,43.0,33.2,99,79,40,30.27,30.17,6,1,6,0.01
2013-5-28,80.4,63.4,50.5,65.3,56.4,50.2,99,81,45,30.18,30.07,12,2,12,0.09
2013-5-29,82.9,71.2,55.9,64.0,59.0,53.9,99,69,41,30.17,30.10,11,4,11,0.00
2013-5-30,91.4,73.5,55.0,68.0,60.4,53.6,99,70,33,30.25,30.15,8,2,8,0.00
2013-5-31,91.4,73.0,57.6,66.9,61.2,52.7,99,73,32,30.20,30.05,10,2,10,0.17
2013-6-1,89.6,72.5,59.4,72.2,62.9,59.1,99,77,44,30.10,29.94,10,2,10,0.01
2013-6-2,77.9,69.6,61.9,66.6,63.1,60.0,98,81,58,29.95,29.88,14,4,14,0.01
2013-6-3,69.6,61.2,50.2,65.7,58.6,49.9,99,92,67,30.05,29.92,15,3,15,0.08
2013-6-4,73.2,56.5,37.8,50.8,45.0,37.5,99,71,36,30.17,30.05,14,3,14,0.00
2013-6-5,77.4,63.1,43.0,60.9,54.6,42.5,99,77,55,30.18,30.03,11,3,11,0.00
2013-6-6,63.3,59.9,57.9,60.6,59.0,57.6,99,97,88,30.04,29.88,11,3,11,0.53
2013-6-7,67.1,62.4,58.8,65.9,61.9,58.5,99,98,95,29.88,29.75,13,2,13,0.27
2013-6-8,72.3,60.5,54.0,60.0,56.6,53.1,99,88,62,30.15,29.85,10,2,10,0.01
2013-6-9,79.2,66.1,52.9,67.0,61.2,52.3,99,86,63,30.22,29.40,10,2,10,0.00
2013-6-10,74.7,66.2,61.0,71.0,64.4,60.4,99,94,73,30.12,29.85,9,3,9,0.45
2013-6-11,73.9,65.1,61.9,66.8,62.8,60.3,99,93,74,29.95,29.85,14,4,14,0.14
2013-6-12,84.0,71.9,62.8,70.1,66.3,61.9,99,84,56,29.97,29.85,14,3,14,0.00
2013-6-13,72.1,65.0,57.6,69.3,63.1,54.3,99,94,82,29.86,29.62,22,6,22,0.65
2013-6-14,73.2,61.7,52.9,57.2,54.4,51.4,98,79,51,30.07,29.76,22,5,22,0.00
2013-6-15,77.9,64.2,49.1,58.9,51.7,44.5,99,69,36,30.15,30.05,14,2,14,0.00
2013-6-16,73.2,64.8,57.9,66.9,61.5,53.2,99,90,75,30.09,29.96,14,4,14,0.01
2013-6-17,81.9,70.2,61.0,68.4,64.1,60.1,99,84,52,30.03,29.96,13,4,13,0.06
2013-6-18,75.2,66.0,59.0,68.5,63.3,58.7,99,92,76,30.00,29.88,16,1,16,0.06
2013-6-19,77.9,64.6,57.0,61.1,58.0,54.1,99,82,50,30.18,29.97,11,2,11,0.00
2013-6-20,84.2,66.9,51.4,66.8,59.0,51.2,99,80,40,30.25,30.18,8,1,8,0.00
2013-6-21,84.7,69.5,56.8,68.3,61.0,54.5,99,79,42,30.29,30.22,11,2,11,0.00
2013-6-22,88.9,73.0,56.8,69.2,63.3,56.6,99,76,40,30.26,30.15,11,2,11,0.00
2013-6-23,89.4,72.0,58.1,74.5,65.3,57.8,99,82,46,30.22,30.11,8,1,8,0.07
2013-6-24,85.5,72.5,59.2,72.9,65.1,58.9,99,81,51,30.20,30.09,11,2,11,0.11
2013-6-25,86.5,74.0,61.5,69.9,66.5,60.4,99,80,51,30.13,29.98,24,4,24,0.11
2013-6-26,80.4,69.0,61.0,71.3,66.2,60.4,99,92,69,30.03,29.91,17,2,17,0.20
2013-6-27,69.8,65.8,60.6,69.0,65.3,9.6,99,98,95,29.91,29.72,10,2,10,0.79
2013-6-28,79.7,67.0,59.2,69.6,64.8,57.2,99,93,65,29.73,29.60,27,3,27,0.24
2013-6-29,78.6,67.7,58.6,66.7,61.3,58.4,99,82,55,29.79,29.62,8,2,8,0.00
2013-6-30,88.2,69.8,55.4,70.1,62.8,55.1,99,83,43,29.92,29.78,11,1,11,0.18
2013-7-1,79.2,67.0,64.4,70.9,65.9,64.1,99,96,68,30.01,29.88,5,0,5,0.05
2013-7-2,80.8,72.2,65.1,74.6,69.5,64.8,99,92,71,30.16,30.01,11,1,11,0.30
2013-7-3,87.1,71.8,63.7,74.2,68.2,62.8,99,90,55,30.26,30.15,8,1,8,0.04
2013-7-4,86.7,73.0,65.3,73.8,68.1,65.0,99,87,54,30.28,30.20,8,1,8,0.07
2013-7-5,86.4,73.5,62.8,74.9,68.5,61.9,99,86,53,30.25,30.17,7,1,11,0.37
2013-7-6,89.8,75.7,64.2,74.4,68.9,63.3,99,82,53,30.26,30.11,11,2,11,0.00
2013-7-7,84.9,70.3,64.2,71.1,67.8,63.0,99,93,63,30.18,30.08,20,1,20,0.59
2013-7-8,81.5,71.5,64.6,68.1,65.8,62.9,99,84,60,30.18,30.11,11,3,11,0.00
2013-7-9,80.8,71.1,65.1,73.3,68.9,64.8,99,93,76,30.16,30.06,9,2,9,0.25
2013-7-10,85.5,73.0,64.0,74.7,68.7,63.2,99,88,58,30.10,29.93,24,4,24,0.21
2013-7-11,78.6,68.2,63.0,68.6,64.5,61.6,99,89,66,30.05,29.94,13,4,13,0.00
2013-7-12,72.5,65.0,59.2,65.7,62.3,58.9,99,91,72,30.14,30.01,11,3,11,0.07
2013-7-13,80.4,69.5,62.8,70.5,66.5,61.9,99,91,69,30.31,30.13,11,2,11,0.00
2013-7-14,86.7,75.0,65.7,71.6,68.3,65.4,99,82,57,30.36,30.29,14,2,14,0.00
2013-7-15,89.1,74.9,61.2,72.8,67.1,60.6,99,80,52,30.40,30.31,11,2,11,0.00
2013-7-16,89.8,75.4,64.2,75.3,69.1,63.3,99,83,53,30.37,30.28,15,3,15,0.00
2013-7-17,90.7,76.8,65.8,75.2,70.7,65.5,99,84,51,30.35,30.21,12,2,12,0.00
2013-7-18,95.7,78.9,64.9,76.8,70.6,64.7,99,80,45,30.25,30.12,9,1,9,0.00
2013-7-19,88.9,75.6,68.7,76.6,71.4,68.2,99,88,63,30.14,29.97,14,2,14,0.04
2013-7-20,78.3,70.9,64.4,73.7,68.8,7.7,99,93,82,30.01,29.91,12,3,12,0.22
2013-7-21,84.6,72.3,64.6,72.4,68.1,64.3,99,88,62,30.04,29.98,7,0,7,0.05
2013-7-22,82.6,68.2,63.5,74.8,67.1,62.6,99,96,74,30.03,29.85,5,0,5,0.28
2013-7-23,82.4,69.4,60.6,69.6,66.0,60.2,99,90,64,29.85,26.78,14,3,14,0.40
2013-7-24,72.9,64.0,52.7,64.5,58.7,52.2,99,84,56,30.02,29.80,16,4,16,0.01
2013-7-25,77.5,61.4,48.0,59.1,52.5,44.5,99,78,36,30.13,30.00,14,2,14,0.00
2013-7-26,83.7,64.5,46.9,62.2,54.4,46.7,99,75,41,30.15,30.05,8,1,8,0.00
2013-7-27,72.9,64.3,55.0,69.0,62.5,54.2,99,94,83,30.08,29.93,8,1,8,0.01
2013-7-28,77.7,66.5,58.5,64.6,59.1,54.1,99,80,49,30.08,29.92,10,2,10,0.08
2013-7-29,72.3,61.0,47.1,57.6,53.6,46.9,99,79,52,30.22,30.08,13,2,13,0.00
2013-7-30,77.9,63.7,50.7,64.1,56.4,50.4,99,80,52,30.26,30.19,14,1,14,0.00
2013-7-31,79.7,63.9,51.6,65.2,59.6,51.3,99,88,56,30.21,30.01,8,1,8,0.00
2013-8-1,80.1,67.3,59.9,69.7,63.7,59.2,99,89,63,30.02,29.91,13,2,13,0.04
2013-8-2,78.1,64.5,53.1,63.6,58.9,52.5,99,84,53,30.03,29.96,10,2,10,0.00
2013-8-3,70.3,64.6,59.9,66.2,62.4,59.6,99,93,80,30.03,29.98,10,3,10,0.14
2013-8-4,73.2,60.9,50.0,60.5,55.1,49.7,99,83,52,30.11,30.01,18,3,18,0.00
2013-8-5,76.8,60.9,47.1,58.1,52.0,46.1,99,78,39,30.15,30.05,10,1,10,0.00
2013-8-6,81.1,64.7,52.7,65.1,58.9,52.2,99,84,47,30.08,30.03,8,1,8,0.00
2013-8-7,88.5,69.8,62.8,73.8,66.5,61.9,99,91,54,30.11,30.00,12,2,12,1.09
2013-8-8,79.9,69.0,61.0,76.6,67.6,8.3,99,96,77,30.06,29.99,8,1,8,1.32
2013-8-9,80.1,70.1,66.2,74.2,69.2,65.9,99,97,77,30.06,29.96,14,2,14,1.62
2013-8-10,82.8,69.2,60.8,66.3,62.8,58.2,99,83,48,30.15,30.06,11,1,11,0.01
2013-8-11,86.4,70.1,57.0,68.8,62.7,56.7,99,81,44,30.16,30.06,8,1,8,0.00
2013-8-12,82.9,70.7,61.2,67.8,64.2,59.8,99,83,54,30.11,29.97,10,1,10,0.00
2013-8-13,79.2,66.6,56.7,69.4,63.0,53.4,99,89,67,29.97,29.85,17,4,17,0.00
2013-8-14,63.5,55.4,48.2,54.8,51.2,47.9,99,87,70,30.15,29.97,15,3,15,0.00
2013-8-15,50.2,47.9,45.7,49.9,47.6,44.9,99,99,97,30.18,30.15,2,0,2,0.00
2013-8-16,79.0,60.0,45.9,58.3,53.5,45.1,99,81,45,30.22,30.15,8,1,8,0.00
2013-8-17,74.5,60.9,47.3,60.1,55.1,47.0,99,83,56,30.29,30.22,13,1,13,0.00
2013-8-18,68.9,61.6,55.4,63.6,59.3,55.1,99,93,79,30.28,30.17,6,1,6,0.53
2013-8-19,78.8,65.7,59.0,69.4,62.9,58.5,99,92,68,30.20,30.11,13,1,13,0.05
2013-8-20,83.8,65.8,52.5,66.3,58.6,52.0,99,82,43,30.25,30.15,8,1,8,0.01
2013-8-21,84.9,65.7,52.9,70.8,62.6,52.3,99,91,54,30.25,30.13,8,1,8,0.20
2013-8-22,81.0,68.2,62.2,70.6,65.0,61.7,99,91,64,30.16,30.03,17,2,17,0.04
2013-8-23,77.7,65.0,59.5,67.7,61.8,58.3,99,91,57,30.18,30.04,14,1,14,0.53
2013-8-24,81.5,64.5,55.6,65.2,58.8,55.3,99,84,49,30.36,30.18,11,1,11,0.00
2013-8-25,83.5,63.5,49.1,63.7,56.4,48.8,99,82,44,30.41,30.28,9,1,9,0.00
2013-8-26,81.7,67.5,54.1,65.7,61.0,53.3,99,82,55,30.31,30.08,13,3,13,0.00
2013-8-27,79.9,71.8,68.0,73.0,68.9,64.9,99,91,77,30.09,29.99,10,4,10,0.00
2013-8-28,74.1,69.4,65.7,73.8,68.6,7.9,99,98,12,30.02,29.85,10,2,10,0.91
2013-8-29,86.7,71.2,62.6,70.9,66.8,61.7,99,88,53,30.09,29.96,10,2,10,0.00
2013-8-30,88.0,68.0,56.3,71.7,63.4,56.0,99,88,51,30.09,27.59,6,1,6,0.00
2013-8-31,83.1,73.9,63.1,71.9,67.3,62.3,99,82,61,29.95,29.88,8,2,8,0.00
2013-9-1,80.2,79.4,64.2,68.8,68.6,63.3,99,71,69,29.91,29.88,2,2,2,0.00
2013-9-2,83.5,71.5,61.9,72.0,67.5,10.0,99,89,60,29.91,29.82,9,2,9,0.02
2013-9-3,74.8,64.5,55.0,65.8,59.2,54.0,99,85,54,30.06,29.87,16,3,16,0.00
2013-9-4,78.3,61.8,49.3,58.0,53.6,47.7,99,79,40,30.15,30.05,11,2,11,0.00
2013-9-5,73.6,62.4,52.7,62.6,56.5,48.0,99,83,51,30.20,30.10,17,4,17,0.00
2013-9-6,76.8,56.1,40.6,54.0,46.2,29.3,99,77,26,30.27,30.15,8,1,8,0.00
2013-9-7,80.1,60.0,43.0,61.3,48.7,35.3,99,75,26,30.17,30.01,8,1,8,0.00
2013-9-8,81.5,67.6,58.8,68.5,62.0,55.5,99,83,63,30.10,29.98,14,3,14,0.05
2013-9-9,76.8,64.3,55.4,66.6,60.4,53.8,99,88,65,30.19,30.10,7,1,7,0.00
2013-9-10,85.8,73.5,62.1,73.8,69.1,61.5,99,87,66,30.23,30.13,8,2,8,0.00
2013-9-11,89.4,73.0,66.6,74.9,70.1,66.3,99,92,56,30.23,30.09,8,1,8,0.00
2013-9-12,81.7,70.2,61.3,72.6,67.2,60.2,99,91,69,30.11,29.84,15,4,15,0.14
2013-9-13,68.2,56.3,46.6,60.5,53.1,45.3,99,90,57,30.01,29.84,20,5,20,0.13
2013-9-14,63.0,49.7,41.2,46.6,44.4,40.9,99,84,50,30.19,30.00,12,3,12,0.00
2013-9-15,73.0,54.1,37.2,56.5,47.9,36.5,99,83,49,30.19,30.10,8,2,8,0.00
2013-9-16,65.5,58.7,52.3,56.4,53.6,51.3,99,85,66,30.20,30.07,17,4,17,0.13
2013-9-17,66.2,61.5,46.4,53.7,52.1,39.5,79,72,66,30.18,29.76,4,2,8,2.87
2013-9-18,69.8,57.9,36.0,54.3,50.0,35.2,99,77,52,30.18,29.78,6,2,8,0.13
2013-9-19,75.4,60.7,49.8,63.7,57.2,49.6,99,90,65,30.18,29.71,6,1,8,0.00
2013-9-20,80.1,63.2,49.8,68.6,60.0,49.6,99,90,63,29.72,29.56,8,1,8,0.00
2013-9-21,70.9,61.0,54.0,67.3,60.1,52.9,99,97,84,29.56,29.34,24,2,24,0.45
2013-9-22,64.4,54.0,45.9,54.8,49.9,43.9,99,87,55,29.62,29.43,16,4,16,0.01
2013-9-23,59.0,47.9,37.2,47.0,43.3,36.5,99,85,62,29.74,29.62,12,4,12,0.00
2013-9-24,72.3,50.0,30.7,54.5,42.0,30.5,99,79,33,29.74,29.60,9,1,9,0.00
2013-9-25,61.7,57.2,46.8,50.8,50.3,46.5,99,78,67,29.62,29.55,2,0,2,0.00
2013-9-26,77.4,55.1,39.7,55.4,45.1,37.0,99,77,30,29.73,29.60,10,2,10,0.00
2013-9-27,75.0,54.1,38.7,58.7,48.5,38.4,99,85,47,29.86,29.73,11,1,11,0.00
2013-9-28,66.2,54.2,46.2,56.9,50.8,45.4,99,89,61,29.92,29.83,8,2,9,0.00
2013-9-29,73.9,55.3,41.0,54.4,49.1,40.7,99,83,47,29.83,29.68,9,1,9,0.00
2013-9-30,72.7,55.8,42.1,60.1,52.7,41.8,99,90,62,29.72,29.65,6,1,6,0.00
2013-10-1,68.7,58.3,50.0,60.8,56.6,49.7,99,95,74,29.75,29.68,6,1,6,0.00
2013-10-2,76.5,65.0,57.6,63.8,60.2,57.1,99,86,57,29.77,29.71,12,3,12,0.00
2013-10-3,80.8,64.6,50.5,68.6,59.0,50.3,99,85,55,29.80,29.70,7,1,7,0.00
2013-10-4,81.3,68.0,58.6,67.9,63.0,58.4,99,86,56,29.79,29.71,9,2,9,0.00
2013-10-5,84.4,70.6,60.6,66.8,63.3,59.6,99,81,48,29.78,29.67,9,2,9,0.00
2013-10-6,87.1,69.9,58.6,67.5,59.5,53.1,99,75,38,29.70,29.51,15,3,15,0.00
2013-10-7,66.7,56.2,46.4,62.7,51.9,42.4,99,86,66,29.74,29.41,15,6,15,0.52
2013-10-8,64.9,50.5,37.6,49.7,42.2,36.8,99,77,42,29.91,29.72,14,3,14,0.00
2013-10-9,63.7,51.4,42.3,46.4,42.2,37.9,95,73,43,29.94,29.86,11,2,11,0.00
2013-10-10,58.5,50.5,46.8,52.3,46.6,40.9,99,87,59,29.86,29.71,9,3,9,0.30
2013-10-11,57.0,53.3,50.2,56.7,53.0,49.9,99,99,97,29.71,29.66,14,6,14,0.38
2013-10-12,61.5,57.3,53.6,60.8,56.7,-6.5,99,98,91,29.83,29.67,11,3,11,0.09
2013-10-13,62.1,55.7,53.4,57.7,54.6,52.8,99,96,84,29.92,29.81,8,2,8,0.33
2013-10-14,64.2,56.5,52.5,59.9,55.3,52.0,99,96,83,29.93,29.84,5,1,5,0.00
2013-10-15,70.3,58.5,52.7,57.3,54.1,50.5,99,87,61,29.87,29.68,8,2,8,0.00
2013-10-16,69.6,59.4,48.2,60.3,54.3,47.9,99,85,60,29.68,29.54,11,2,11,0.00
2013-10-17,63.7,57.8,46.6,61.2,57.1,45.7,99,97,87,29.55,29.33,17,5,17,0.20
2013-10-18,59.2,48.3,38.1,46.3,40.9,35.8,99,78,45,29.65,29.51,17,5,17,0.00
2013-10-19,57.0,43.1,31.6,49.2,40.1,31.4,99,90,55,29.62,29.40,22,4,22,0.05
2013-10-20,54.7,43.9,36.0,39.0,35.4,30.6,97,76,43,29.69,29.53,17,6,17,0.00
2013-10-21,67.5,47.6,30.4,42.1,33.7,27.7,99,67,28,29.70,29.53,14,3,14,0.00
2013-10-22,52.0,45.4,32.9,46.7,36.1,26.0,99,72,45,29.54,29.47,17,5,17,0.05
2013-10-23,41.9,35.8,32.9,39.2,34.8,31.1,99,96,85,29.51,29.32,21,3,21,0.11
2013-10-24,39.4,34.4,30.7,34.7,29.9,23.3,98,84,60,29.70,29.50,17,7,17,0.05
2013-10-25,42.3,33.4,30.9,35.3,30.2,27.6,99,88,71,29.88,29.70,14,6,14,0.00
2013-10-26,49.8,38.3,27.1,30.2,24.4,15.8,95,63,30,29.85,29.52,27,7,27,0.00
2013-10-27,50.2,41.8,31.6,35.8,30.6,25.5,88,66,44,29.72,29.55,16,5,16,0.00
2013-10-28,62.4,42.2,26.8,42.6,31.1,25.5,99,71,29,29.88,29.71,9,1,9,0.00
2013-10-29,63.1,44.2,28.8,39.6,32.4,22.8,99,70,26,29.96,29.87,11,1,11,0.00
2013-10-30,62.4,50.9,37.9,55.5,47.3,34.1,99,88,73,29.88,29.76,11,2,11,0.01
2013-10-31,65.1,58.7,54.5,58.2,55.5,51.9,99,90,67,29.76,29.28,18,3,18,0.09
2013-11-1,66.4,57.0,43.0,58.3,48.4,41.4,95,75,51,29.37,29.12,26,8,26,0.13
2013-11-2,50.0,45.0,40.5,45.6,41.5,38.3,99,88,77,29.53,29.31,19,5,19,0.01
2013-11-3,48.9,39.4,27.7,40.4,31.0,19.5,99,75,36,29.99,29.53,17,6,17,0.05
2013-11-4,35.6,28.5,25.0,25.5,22.2,17.4,90,78,53,30.04,29.91,6,1,6,0.00
2013-11-5,50.7,38.8,29.5,36.2,25.4,20.3,84,61,36,29.99,29.84,8,2,8,0.00
2013-11-6,69.8,51.7,33.1,50.4,43.2,30.6,99,76,44,29.85,29.46,17,3,17,0.00
2013-11-7,61.3,44.7,34.2,53.5,39.4,21.1,99,83,57,29.56,29.38,21,8,30,0.27
2013-11-8,39.7,33.8,24.4,27.6,24.0,19.3,85,68,53,29.73,29.52,27,7,27,0.00
2013-11-9,56.1,40.7,22.1,33.3,19.0,11.0,97,53,21,29.72,29.46,22,6,22,0.00
2013-11-10,48.0,41.8,34.0,35.2,28.8,21.3,75,61,37,29.70,29.42,31,13,31,0.00
2013-11-11,53.8,40.7,31.5,37.5,23.9,11.3,88,59,23,29.72,29.47,23,7,23,0.06
2013-11-12,40.6,27.9,23.9,39.1,21.7,11.6,99,79,51,29.83,29.48,25,10,25,0.06
2013-11-13,33.4,26.4,20.7,19.6,17.4,15.0,86,69,53,29.89,29.76,21,8,21,0.00
2013-11-14,48.7,36.7,26.1,17.3,11.8,5.9,68,40,23,29.77,29.65,22,8,22,0.00
2013-11-15,53.8,46.1,40.8,40.6,17.1,7.3,95,37,23,29.70,29.62,16,6,16,0.01
2013-11-16,58.5,44.4,33.1,47.4,42.4,32.8,99,93,67,29.73,29.63,8,1,8,0.01
2013-11-17,56.3,49.7,48.7,55.3,48.2,47.1,99,94,89,29.63,29.15,28,1,28,0.18
2013-11-18,52.9,46.8,35.8,48.5,32.9,24.3,92,61,39,29.46,29.23,29,13,38,0.04
2013-11-19,35.6,31.1,26.1,24.9,22.2,18.8,77,70,63,29.80,29.46,31,8,31,0.00
2013-11-20,41.4,31.3,21.4,21.5,14.7,6.5,87,55,26,29.91,29.78,12,4,12,0.00
2013-11-21,49.3,36.9,25.5,36.7,28.6,16.8,88,73,55,29.91,29.75,10,2,10,0.00
2013-11-22,53.1,47.2,35.8,52.2,46.1,35.0,99,96,84,29.76,29.52,26,6,26,0.22
2013-11-23,35.8,30.6,27.9,35.0,25.1,19.8,97,80,70,29.67,29.58,23,8,23,0.00
2013-11-24,19.6,15.5,11.7,8.5,1.6,-2.6,76,54,41,29.86,29.66,27,9,27,0.00
2013-11-25,40.3,24.8,10.2,9.9,2.7,-2.7,61,42,24,29.85,29.65,14,4,14,0.00
2013-11-26,38.1,33.6,30.6,37.9,29.8,6.7,99,88,31,29.66,29.13,12,2,14,0.71
2013-11-27,34.7,25.8,17.4,34.2,22.6,8.4,99,88,65,29.48,29.10,14,0,14,0.00
2013-11-28,24.6,20.4,15.8,16.2,10.8,5.3,75,66,58,29.82,29.47,0,0,0,0.00
2013-11-29,33.1,25.3,18.3,20.1,15.7,12.3,86,67,54,30.04,29.81,10,2,10,0.00
2013-11-30,29.8,23.3,18.1,20.7,16.6,12.1,86,76,61,30.03,26.96,12,4,12,0.00
2013-12-1,48.4,34.9,18.5,33.3,24.6,13.3,88,68,41,29.70,29.44,14,3,14,0.00
2013-12-2,51.6,40.9,34.0,36.6,32.7,28.1,87,73,55,29.44,29.30,7,2,7,0.00
2013-12-3,55.0,41.4,33.4,44.0,34.3,29.5,98,78,49,29.44,29.32,24,1,24,0.01
2013-12-4,62.2,44.4,32.4,46.5,38.5,30.3,97,82,54,29.50,29.41,9,2,9,0.00
2013-12-5,70.7,53.7,43.3,59.8,51.2,41.5,99,92,63,29.49,29.40,19,3,19,0.52
2013-12-6,47.3,34.9,28.8,47.0,34.1,28.0,99,97,92,29.63,29.42,16,5,16,0.59
2013-12-7,28.8,24.5,19.8,28.0,21.0,15.8,98,87,77,29.92,29.61,0,0,0,0.00
2013-12-8,23.4,19.6,17.4,21.7,16.2,12.8,94,86,81,29.92,29.61,0,0,0,0.00
2013-12-9,38.7,32.1,23.4,38.4,30.5,21.7,99,94,81,29.62,29.46,25,5,25,0.05
2013-12-10,28.9,23.8,20.5,25.0,15.0,8.2,86,70,54,29.60,29.41,29,12,29,0.01
2013-12-11,28.8,21.0,16.9,19.0,9.6,3.1,86,62,35,29.71,29.59,22,11,22,0.00
2013-12-12,21.0,17.0,12.6,16.8,-1.0,-12.2,84,47,29,29.78,29.59,24,10,24,0.00
2013-12-13,33.6,24.8,16.7,12.3,5.1,-4.4,49,43,36,29.69,29.56,24,8,24,0.00
2013-12-14,31.5,28.9,25.7,31.2,23.4,10.5,99,82,46,29.67,29.16,15,3,15,0.00
2013-12-15,36.7,27.8,22.8,35.7,24.2,16.3,99,86,74,29.36,29.08,29,10,29,0.15
2013-12-16,27.5,23.0,19.0,23.6,18.0,13.3,92,81,63,29.53,29.36,20,5,20,0.00
2013-12-17,35.4,31.0,25.7,33.5,27.4,19.4,97,86,74,29.49,29.36,17,6,17,0.15
2013-12-18,27.3,24.3,21.4,20.6,17.1,15.3,86,74,63,29.60,29.42,22,7,22,0.00
2013-12-19,52.5,40.5,25.2,32.3,19.5,5.2,64,45,27,29.56,29.49,34,9,34,0.01
2013-12-20,56.3,49.6,38.1,48.9,36.0,20.6,90,61,38,29.54,29.42,24,6,24,0.01
2013-12-21,65.3,58.2,55.0,55.9,52.5,48.7,96,82,67,29.45,29.30,11,4,11,0.06
2013-12-22,66.4,58.1,54.9,56.6,52.2,48.7,94,81,68,29.47,29.22,33,8,33,0.18
2013-12-23,54.9,39.7,26.6,50.3,35.6,16.0,95,85,65,29.67,29.42,21,7,21,0.04
2013-12-24,26.6,20.1,9.7,18.5,9.8,-2.9,83,64,42,29.84,29.61,24,8,24,0.00
2013-12-25,29.7,17.8,6.8,9.8,3.4,-3.0,72,55,32,29.85,29.64,9,3,9,0.00
2013-12-26,33.4,28.3,23.4,25.0,15.8,9.1,86,61,46,29.75,29.57,27,7,27,0.01
2013-12-27,41.0,30.9,19.4,15.9,12.3,4.3,69,49,27,29.77,29.71,23,6,23,0.00
2013-12-28,50.4,41.2,30.0,23.4,17.7,11.8,54,41,28,29.73,29.55,17,6,17,0.00
2013-12-29,44.6,40.0,37.0,41.5,34.2,13.2,99,84,30,29.54,29.10,20,5,20,0.79
2013-12-30,37.2,26.1,19.2,34.8,22.2,13.0,92,85,76,29.57,29.30,23,6,23,0.05
2013-12-31,24.6,22.2,19.8,19.5,15.5,10.8,84,75,66,29.65,29.47,30,13,30,0.04
2014-1-1,43.2,29.9,19.8,20.9,15.2,11.7,77,57,31,29.72,29.50,23,6,24,0.00
2014-1-2,32.0,25.6,11.7,24.8,19.6,5.4,87,78,64,29.50,29.09,19,2,19,0.00